Date String (YYYY-MM-DD hh:mm:ss) UTC,Instrument flags,Ambient pressure (hPa),Sample flow (lpm),Bypass flow (lpm),Sample temperature (°C),Ambient temperature (°C),ASC tube jacket temperature (°C),LED temperature (°C),Box temperature (°C),Sample RH (%),Span deviation,Mass concentration (μg/m³),Mass concentration (μg/m³),Mass concentration (μg/m³)
DateTimeUTC,F1_M11,P_M11,Q1_M11,Q2_M11,T1_M11,T2_M11,T3_M11,T4_M11,T5_M11,U1_M11,ZSPAN_M11,X0_M11,X2_M11,X1_M11
2023-03-11 08:00:00,,0811.9,4.99,0.00,22.1,20.6,00.0,30.9,23.9,18.7,0000.0,0000.41,0000.27,0000.21
2023-03-11 08:01:00,,0812.0,5.00,0.00,22.1,20.6,00.0,30.9,23.9,18.5,0000.0,0000.41,0000.27,0000.21
2023-03-11 08:02:00,,0811.8,4.98,0.00,22.1,20.6,00.0,30.9,23.9,18.6,0000.0,0000.41,0000.27,0000.21
2023-03-11 08:03:00,,0811.7,5.00,0.00,22.1,20.5,00.0,30.9,23.8,18.2,0000.0,0000.42,0000.28,0000.21
2023-03-11 08:04:00,,0811.8,5.00,0.00,22.0,20.4,00.0,30.9,23.8,18.3,0000.0,0000.54,0000.29,0000.21
2023-03-11 08:05:00,,0811.9,4.99,0.00,22.0,20.4,00.0,30.9,23.8,18.3,0000.0,0000.76,0000.29,0000.22
2023-03-11 08:06:00,,0811.9,5.00,0.00,22.0,20.4,00.0,30.8,23.8,18.5,0000.0,0000.79,0000.30,0000.23
2023-03-11 08:07:00,,0811.9,4.98,0.00,22.0,20.4,00.0,30.8,23.8,18.6,0000.0,0000.83,0000.32,0000.23
2023-03-11 08:08:00,,0811.9,4.99,0.00,22.0,20.3,00.0,30.8,23.8,18.6,0000.0,0000.78,0000.31,0000.24
2023-03-11 08:09:00,,0811.9,5.00,0.00,22.0,20.4,00.0,30.8,23.8,18.6,0000.0,0000.83,0000.33,0000.25
2023-03-11 08:10:00,,0811.9,5.01,0.00,22.0,20.4,00.0,30.8,23.8,18.8,0000.0,0000.88,0000.35,0000.25
2023-03-11 08:11:00,,0812.0,4.99,0.00,22.0,20.3,00.0,30.8,23.7,18.9,0000.0,0000.94,0000.38,0000.26
2023-03-11 08:12:00,,0812.0,5.00,0.00,22.0,20.3,00.0,30.8,23.7,19.0,0000.0,0000.95,0000.38,0000.26
2023-03-11 08:13:00,,0812.1,5.00,0.00,21.9,20.3,00.0,30.8,23.7,18.9,0000.0,0000.99,0000.40,0000.27
2023-03-11 08:14:00,,0812.1,5.00,0.00,21.9,20.3,00.0,30.8,23.7,19.0,0000.0,0000.98,0000.40,0000.26
2023-03-11 08:15:00,,0812.2,4.98,0.00,21.9,20.3,00.0,30.8,23.7,19.1,0000.0,0002.16,0000.40,0000.26
2023-03-11 08:16:00,,0812.2,4.99,0.00,21.9,20.2,00.0,30.7,23.7,19.1,0000.0,0002.13,0000.42,0000.26
2023-03-11 08:17:00,,0812.2,5.00,0.00,21.9,20.2,00.0,30.7,23.7,19.2,0000.0,0002.16,0000.44,0000.26
2023-03-11 08:18:00,,0812.2,5.00,0.00,21.9,20.3,00.0,30.7,23.7,19.3,0000.0,0002.17,0000.44,0000.26
2023-03-11 08:19:00,,0812.3,5.00,0.00,21.9,20.3,00.0,30.7,23.7,19.3,0000.0,0002.21,0000.45,0000.26
2023-03-11 08:20:00,,0812.3,5.00,0.00,21.9,20.4,00.0,30.7,23.7,19.2,0000.0,0002.19,0000.45,0000.26
2023-03-11 08:21:00,,0812.3,5.01,0.00,22.0,21.2,00.0,30.7,24.0,19.2,0000.0,0002.20,0000.46,0000.26
2023-03-11 08:22:00,,0812.4,5.00,0.00,22.1,22.3,00.0,30.7,24.2,19.1,0000.0,0002.19,0000.46,0000.26
2023-03-11 08:23:00,,0812.4,4.98,0.00,22.2,23.1,00.0,30.8,24.4,19.0,0000.0,0002.23,0000.47,0000.26
2023-03-11 08:24:00,,0812.4,4.96,0.00,22.3,22.8,00.0,30.8,24.4,19.0,0000.0,0002.21,0000.47,0000.26
2023-03-11 08:25:00,,0812.4,5.00,0.00,22.3,22.4,00.0,30.9,24.3,19.1,0000.0,0002.27,0000.49,0000.26
2023-03-11 08:26:00,,0812.5,5.00,0.00,22.3,22.0,00.0,30.9,24.3,19.3,0000.0,0001.27,0000.50,0000.26
2023-03-11 08:27:00,,0812.4,4.99,0.00,22.3,21.7,00.0,30.9,24.2,19.4,0000.0,0000.91,0000.48,0000.25
2023-03-11 08:28:00,,0812.4,5.00,0.00,22.3,21.5,00.0,30.9,24.2,19.4,0000.0,0000.93,0000.49,0000.25
2023-03-11 08:29:00,,0812.4,5.00,0.00,22.3,21.3,00.0,31.0,24.2,19.4,0000.0,0000.89,0000.47,0000.25
2023-03-11 08:30:00,,0812.4,5.01,0.00,22.3,21.2,00.0,31.0,24.1,19.5,0000.0,0000.82,0000.45,0000.24
2023-03-11 08:31:00,,0812.4,5.00,0.00,22.3,21.1,00.0,31.0,24.1,19.9,0000.0,0000.77,0000.42,0000.23
2023-03-11 08:32:00,,0812.4,5.00,0.00,22.3,21.0,00.0,31.0,24.2,20.2,0000.0,0000.75,0000.41,0000.22
2023-03-11 08:33:00,,0812.4,5.00,0.00,22.3,20.9,00.0,31.0,24.2,20.3,0000.0,0000.69,0000.37,0000.20
2023-03-11 08:34:00,,0812.4,5.00,0.00,22.3,20.9,00.0,31.0,24.1,20.6,0000.0,0000.65,0000.35,0000.20
2023-03-11 08:35:00,,0812.4,5.00,0.00,22.3,20.8,00.0,31.0,24.0,20.9,0000.0,0000.72,0000.36,0000.19
2023-03-11 08:36:00,,0812.4,5.00,0.00,22.2,20.7,00.0,31.0,24.0,21.2,0000.0,0000.75,0000.37,0000.18
2023-03-11 08:37:00,,0812.4,4.99,0.00,22.2,20.6,00.0,31.0,24.0,21.2,0000.0,0000.70,0000.36,0000.18
2023-03-11 08:38:00,,0812.4,5.00,0.00,22.2,20.6,00.0,31.0,24.0,21.4,0000.0,0000.65,0000.35,0000.18
2023-03-11 08:39:00,,0812.3,5.00,0.00,22.2,20.6,00.0,31.0,24.0,21.5,0000.0,0000.61,0000.32,0000.16
2023-03-11 08:40:00,,0812.3,5.00,0.00,22.2,20.6,00.0,31.0,23.9,21.4,0000.0,0000.58,0000.31,0000.16
2023-03-11 08:41:00,,0812.4,5.01,0.00,22.2,20.5,00.0,31.0,23.9,21.4,0000.0,0000.60,0000.31,0000.16
2023-03-11 08:42:00,,0812.4,5.01,0.00,22.1,20.5,00.0,31.0,23.9,21.9,0000.0,0000.73,0000.36,0000.16
2023-03-11 08:43:00,,0812.4,5.00,0.00,22.1,20.5,00.0,30.9,23.9,22.0,0000.0,0000.70,0000.35,0000.16
2023-03-11 08:44:00,,0812.4,4.99,0.00,22.1,20.4,00.0,30.9,23.8,22.2,0000.0,0000.70,0000.35,0000.16
2023-03-11 08:45:00,,0812.4,5.01,0.00,22.1,20.4,00.0,30.9,23.8,22.0,0000.0,0000.68,0000.35,0000.15
2023-03-11 08:46:00,,0812.4,5.00,0.00,22.1,20.4,00.0,30.9,23.8,22.6,0000.0,0000.59,0000.31,0000.15
2023-03-11 08:47:00,,0812.4,5.00,0.00,22.0,20.4,00.0,30.9,23.7,23.0,0000.0,0000.47,0000.26,0000.14
2023-03-11 08:48:00,,0812.3,5.00,0.00,22.0,20.3,00.0,30.9,23.7,22.9,0000.0,0000.44,0000.25,0000.13
2023-03-11 08:49:00,,0812.3,5.00,0.00,22.0,20.3,00.0,30.9,23.7,22.6,0000.0,0000.42,0000.24,0000.13
2023-03-11 08:50:00,,0812.3,5.00,0.00,22.0,20.3,00.0,30.8,23.7,22.6,0000.0,0000.37,0000.22,0000.12
2023-03-11 08:51:00,,0812.3,5.00,0.00,22.0,20.3,00.0,30.8,23.6,22.8,0000.0,0000.38,0000.22,0000.12
2023-03-11 08:52:00,,0812.3,5.00,0.00,21.9,20.2,00.0,30.8,23.6,22.8,0000.0,0000.38,0000.22,0000.12
2023-03-11 08:53:00,,0812.3,5.00,0.00,21.9,20.2,00.0,30.8,23.6,22.7,0000.0,0000.30,0000.18,0000.12
2023-03-11 08:54:00,,0812.2,5.00,0.00,21.9,20.2,00.0,30.8,23.6,22.7,0000.0,0000.35,0000.20,0000.12
2023-03-11 08:55:00,,0812.1,5.01,0.00,21.9,20.2,00.0,30.8,23.6,22.9,0000.0,0000.39,0000.22,0000.12
2023-03-11 08:56:00,,0812.1,5.00,0.00,21.9,20.2,00.0,30.8,23.6,23.0,0000.0,0000.37,0000.21,0000.12
2023-03-11 08:57:00,,0812.1,5.00,0.00,21.9,20.2,00.0,30.7,23.7,22.9,0000.0,0000.37,0000.21,0000.12
2023-03-11 08:58:00,,0812.1,5.00,0.00,21.9,20.2,00.0,30.7,23.7,23.0,0000.0,0000.37,0000.21,0000.12
2023-03-11 08:59:00,,0812.1,4.99,0.00,21.9,20.2,00.0,30.7,23.7,23.0,0000.0,0000.38,0000.21,0000.12
